Weather in Porto Cervo

Italy     41°07′54″N   9°32′05″E
temp.,
°C
wind,
m/s
gust,
m/s
humid.,
%
clouds,
%
prec.,
mm/h
press.,
hPa
HPBL,
m
27 october, wed
wed2723:00+18sw11650 0.0 1020441
02:00+17ne12660 0.0 1020663
05:00+18ne55677 0.0 1020761
08:00+18nne66758 0.0 1020774
11:00+18ene667811 0.1 1021781
14:00+18ne7779100 0.5 1021777
17:00+17ne7778100 0.1 1020684
20:00+18ene7678100 0.1 1021771
28 october, thu
thu2823:00+18ene5577100 0.0 1021634
02:00+18ne557083 0.0 1021681
05:00+18ene4468100 0.0 1020730
08:00+18ene4469100 0.0 1020739
11:00+18e3370100 0.0 1020702
14:00+18ene3369100 0.1 1019594
17:00+17nnw1173100 0.6 1018339
20:00+18ne3472100 1.5 1019486
29 october, fri
fri2923:00+18e3378100 0.3 1018494
02:00+18e4481100 1.8 1017467
05:00+18e4475100 1.1 1016602
08:00+18e3375100 1.3 1016585
11:00+17se2281100 0.3 1016373
14:00+17ese1177100 1.6 1016106
17:00+18ene117116 0.4 1015269
20:00+18ese1171100 0.6 1016165
30 october, sat
sat3023:00+18ssw2173100 0.8 1016207
02:00+17wsw3377100 0.8 1016281
05:00+18w55785 0.0 1016520
08:00+17wnw44772 0.0 1017472
11:00+18wnw44765 0.0 1018523
14:00+18nw337669 0.0 1018394
17:00+18ne1170100 0.0 1018227
20:00+18s3275100 0.0 1019247
31 october, sun
sun3123:00+18sse3377100 0.0 1019225
02:00+17s3476100 0.0 1018198
04:00+17sse3472100 0.0 1017171
07:00+18s3362100 0.0 1016171
10:00+18w2265100 0.1 1016171
13:00+17ese2276100 0.9 1015243
16:00+18sse5569100 0.2 1013377
19:00+19s5570100 0.2 1013227